This demonstration page uses our WeatherBlox Daily Observations layout. Learn more.

Left ArrowRight Arrow

Hourly Observations for December 14, 2019

Temp ( °F °C ) Dew Point ( °F °C ) Humidity (%) Winds ( mph kmh ) Pressure ( in mb ) Visibility ( mi km ) Precip ( " mm )
12:13 am 00:13 Partly Cloudy with Mist and Fog 49 9.4 47 8.3 93 93 Calm 30.00 1016 6 10 0.00 0.00
12:44 am 00:44 Clear with Mist and Fog 46 7.8 45 7.2 96 96 Calm 30.00 1016 2 2 0.00 0.00
12:48 am 00:48 Mostly Cloudy with Mist and Fog 46 8 45 7 93 93 SSE 3 6 30.00 1016 1 1 0.00 0.00
12:53 am 00:53 Mostly Cloudy with Fog 45 7.2 44 6.7 97 97 S 3 6 29.98 1015 1 1 0.00 0.00
1:11 am 01:11 Mostly Clear with Mist and Fog 46 7.8 44 6.7 93 93 Calm 29.99 1016 1 2 0.00 0.00
1:21 am 01:21 Mostly Cloudy with Mist and Fog 46 7.8 44 6.7 93 93 Calm 29.99 1016 1 1 0.00 0.00
1:28 am 01:28 Mostly Cloudy with Fog 45 7.2 44 6.7 97 97 Calm 29.99 1016 0 0 0.00 0.00
1:44 am 01:44 Mostly Cloudy with Fog 45 7.2 43 6.1 93 93 WSW 3 6 30.00 1016 0 0 0.00 0.00
1:47 am 01:47 Mostly Cloudy with Fog 45 7 43 6 93 93 Calm 30.00 1016 1 1 0.00 0.00
1:53 am 01:53 Mostly Cloudy with Mist and Fog 44 6.7 42 5.6 93 93 Calm 29.98 1015 1 2 0.00 0.00
2:02 am 02:02 Mostly Clear with Mist and Fog 44 6.7 43 6.1 96 96 Calm 30.00 1016 1 2 0.00 0.00
2:15 am 02:15 Mostly Cloudy with Mist and Fog 44 6.7 43 6.1 96 96 Calm 30.00 1016 1 2 0.00 0.00
2:26 am 02:26 Mostly Cloudy with Mist and Fog 45 7.2 44 6.7 97 97 NNE 5 7 30.00 1016 1 1 0.00 0.00
2:53 am 02:53 Mostly Cloudy with Fog 45 7.2 44 6.7 97 97 NNE 5 7 30.00 1016 0 0 0.00 0.00
3:25 am 03:25 Mostly Cloudy with Fog 44 6.7 43 6.1 96 96 Calm 30.01 1016 1 1 0.00 0.00
3:53 am 03:53 Mostly Cloudy with Fog 46 7.8 44 6.7 93 93 Calm 30.02 1017 1 1 0.00 0.00
4:30 am 04:30 Cloudy with Mist and Fog 46 7.8 45 7.2 96 96 Calm 30.04 1017 2 2 0.00 0.00
4:38 am 04:38 Cloudy with Mist and Fog 46 7.8 45 7.2 96 96 N 3 6 30.03 1017 3 4 0.00 0.00
4:43 am 04:43 Mostly Cloudy with Mist and Fog 46 7.8 45 7.2 96 96 N 3 6 30.03 1017 3 5 0.00 0.00
4:50 am 04:50 Partly Cloudy with Mist and Fog 45 7 45 7 100 100 Calm 30.03 1017 3 4 0.00 0.00
4:53 am 04:53 Partly Cloudy with Mist and Fog 45 7.2 44 6.7 97 97 Calm 30.01 1016 2 3 0.00 0.00
4:58 am 04:58 Mostly Cloudy with Mist and Fog 44 6.7 43 6.1 96 96 Calm 30.03 1017 1 2 0.00 0.00
5:00 am 05:00 Partly Cloudy with Mist and Fog 44 6.7 43 6.1 96 96 Calm 30.03 1017 1 1 0.00 0.00
5:06 am 05:06 Mostly Cloudy with Fog 44 6.7 43 6.1 96 96 WNW 3 6 30.03 1017 0 0 0.00 0.00
5:33 am 05:33 Mostly Cloudy with Fog 43 6.1 41 5 93 93 Calm 30.04 1017 1 1 0.00 0.00
5:48 am 05:48 Cloudy with Mist and Fog 43 6 43 6 100 100 E 3 6 30.05 1017 1 1 0.00 0.00
5:53 am 05:53 Cloudy with Fog 43 6.1 42 5.6 97 97 Calm 30.03 1017 0 0 0.00 0.00
6:09 am 06:09 Cloudy with Fog 43 6.1 42 5.6 97 97 Calm 30.06 1018 0 0 0.00 0.00
6:18 am 06:18 Cloudy with Fog 43 6.1 42 5.6 97 97 N 3 6 30.05 1017 1 1 0.00 0.00
6:23 am 06:23 Mostly Cloudy with Mist and Fog 43 6.1 42 5.6 97 97 N 3 6 30.05 1017 1 2 0.00 0.00
6:27 am 06:27 Mostly Cloudy with Mist and Fog 42 5.6 41 5 96 96 N 5 7 30.05 1017 2 3 0.00 0.00
6:31 am 06:31 Partly Cloudy with Mist and Fog 42 5.6 40 4.4 92 92 NNW 6 9 30.05 1017 3 5 0.00 0.00
6:53 am 06:53 Mostly Clear with Mist and Fog 42 5.6 41 5 96 96 Calm 30.03 1017 6 10 0.00 0.00
7:15 am 07:15 Mostly Clear with Mist and Fog 41 5 39 3.9 93 93 SSW 3 6 30.05 1018 2 2 0.00 0.00
7:17 am 07:17 Partly Cloudy with Fog 40 4.4 39 3.9 97 97 SW 3 6 30.05 1018 1 1 0.00 0.00
7:23 am 07:23 Mostly Cloudy with Fog 40 4.4 39 3.9 97 97 W 5 7 30.05 1018 0 0 0.00 0.00
7:46 am 07:46 Cloudy with Fog 41 5 39 3.9 93 93 Calm 30.07 1018 1 1 0.00 0.00
7:53 am 07:53 Cloudy with Fog 41 5 40 4.4 96 96 Calm 30.05 1018 0 0 0.00 0.00
8:09 am 08:09 Partly Cloudy with Mist and Fog 40 4.4 39 3.9 97 97 WNW 3 6 30.07 1018 1 1 0.00 0.00
8:11 am 08:11 Partly Cloudy with Mist and Fog 41 5 39 3.9 93 93 WNW 3 6 30.07 1018 2 2 0.00 0.00
8:14 am 08:14 Partly Cloudy with Mist and Fog 41 5 40 4.4 96 96 WNW 3 6 30.07 1018 3 5 0.00 0.00
8:53 am 08:53 Sunny 44 6.7 42 5.6 93 93 Calm 30.07 1018 10 16 0.00 0.00
9:53 am 09:53 Sunny 48 8.9 43 6.1 83 83 Calm 30.08 1019 10 16 0.00 0.00
10:53 am 10:53 Sunny 51 10.6 44 6.7 77 77 Calm 30.06 1018 10 16 0.00 0.00
11:53 am 11:53 Sunny 54 12.2 42 5.6 64 64 Calm 30.02 1017 10 16 0.00 0.00
12:53 pm 12:53 Sunny 55 12.8 41 5 59 59 Calm 29.99 1016 10 16 0.00 0.00
1:53 pm 13:53 Mostly Sunny 54 12.2 38 3.3 55 55 Calm 29.94 1014 10 16 0.00 0.00
2:53 pm 14:53 Cloudy 54 12.2 40 4.4 59 59 S 8 13 29.93 1013 10 16 0.00 0.00
3:53 pm 15:53 Cloudy 54 12.2 41 5 62 62 SSW 8 13 29.92 1013 10 16 0.00 0.00
4:53 pm 16:53 Cloudy with Light Rain 48 8.9 42 5.6 80 80 W 6 9 29.92 1013 5 8 0.04 1.02
5:53 pm 17:53 Mostly Clear 47 8.3 43 6.1 86 86 NNE 5 7 29.92 1013 10 16 0.00 0.00
6:53 pm 18:53 Cloudy 46 7.8 42 5.6 86 86 SE 5 7 29.94 1014 10 16 0.00 0.00
7:53 pm 19:53 Clear 44 6.7 41 5 89 89 Calm 29.94 1014 10 16 0.00 0.00
8:53 pm 20:53 Clear 43 6.1 40 4.4 89 89 NNW 3 6 29.94 1014 10 16 0.00 0.00
9:53 pm 21:53 Clear 40 4.4 38 3.3 93 93 Calm 29.96 1014 10 16 0.00 0.00
10:53 pm 22:53 Clear 39 3.9 38 3.3 96 96 Calm 29.97 1015 8 13 0.00 0.00
11:53 pm 23:53 Clear 39 3.9 37 2.8 93 93 NE 3 6 30.00 1016 9 14 0.00 0.00

Powered by AerisWeather